Date,TemperatureHighF,TemperatureAvgF,TemperatureLowF,DewpointHighF,DewpointAvgF,DewpointLowF,HumidityHigh,HumidityAvg,HumidityLow,PressureMaxIn,PressureMinIn,WindSpeedMaxMPH,WindSpeedAvgMPH,GustSpeedMaxMPH,PrecipitationSumIn
2013-2-1,29,17,6,16,4,-2,70,57,44,30.54,30.24,13,2,18,0.00
2013-2-2,38,32,27,24,19,12,88,60,48,30.24,30.08,16,3,22,0.00
2013-2-3,35,30,27,28,19,13,90,64,43,30.24,30.01,17,3,22,0.10
2013-2-4,48,35,28,32,24,16,79,65,47,30.02,29.83,14,2,19,0.00
2013-2-5,52,36,26,34,28,21,86,72,49,30.17,29.91,12,2,20,0.00
2013-2-6,53,39,23,34,28,20,90,68,43,30.24,30.04,11,1,13,0.00
2013-2-7,45,41,35,43,36,31,92,83,59,30.10,29.88,15,1,21,0.41
2013-2-8,35,34,32,32,28,26,91,81,75,30.42,30.11,19,2,19,0.00
2013-2-9,41,35,29,34,28,25,86,75,63,30.39,30.01,11,2,15,0.14
2013-2-10,62,48,38,52,39,28,91,73,32,30.01,29.50,26,5,33,0.28
2013-2-11,48,40,30,29,26,22,80,56,41,30.19,29.76,24,8,31,0.00
2013-2-12,42,33,23,30,26,20,89,76,56,30.21,29.98,5,0,9,0.00
2013-2-13,50,39,30,32,29,25,87,68,47,29.99,29.82,13,2,20,0.00
2013-2-14,51,44,39,34,31,25,74,59,47,30.09,29.80,19,4,21,0.00
2013-2-15,39,32,26,27,17,11,73,54,34,30.33,30.09,15,4,25,0.00
2013-2-16,35,26,19,15,13,10,76,58,39,30.32,30.20,13,2,16,0.00
2013-2-17,47,34,19,30,20,14,85,60,34,30.21,29.88,11,2,16,0.00
2013-2-18,57,45,31,48,36,20,86,71,60,29.93,29.49,22,4,27,0.20
2013-2-19,30,25,21,20,13,9,69,60,46,30.36,29.93,24,6,30,0.00
2013-2-20,25,20,13,13,9,5,73,63,55,30.46,30.34,8,1,11,0.00
2013-2-21,31,24,20,29,20,13,95,84,73,30.38,29.86,12,3,18,0.00
2013-2-22,33,30,22,31,25,16,92,83,71,30.09,29.82,13,2,14,0.01
2013-2-23,33,22,12,20,15,8,88,75,56,30.09,30.03,13,1,13,0.09
2013-2-24,45,28,8,26,17,4,86,67,40,30.17,30.06,7,1,11,0.08
2013-2-25,44,35,23,32,27,18,88,73,54,30.12,29.75,15,2,17,0.00
2013-2-26,36,34,33,32,31,29,91,89,80,29.75,29.45,16,3,17,0.35
2013-2-27,35,32,31,31,29,27,92,87,82,29.93,29.70,15,5,21,0.20
2013-2-28,34,32,30,29,27,26,88,83,75,30.16,29.92,12,3,16,0.03